Home   Weather   Oshawa   Past weeks

Flag for Canada Past Weather in Oshawa, Ontario, Canada — Yesterday and Last 2 Weeks

37 °F

Light rain. Fog.

Feels Like: 29 °F
Forecast: 36 / 43 °F
Wind: 13 mph from Northeast

Location: Toronto Buttonville

Current Time: Oct 27, 2016 at 2:46:30 PM

Latest Report: Oct 27, 2016 at 2:00 PM

Visibility: 3 mi

Pressure: 30.00 "Hg

Humidity: 93%

Dew Point: 36 °F

Location of OshawaLocation

Past Weather in Oshawa — Graph


Oshawa Temperature Yesterday

Maximum temperature yesterday: 39 °F (at 1:00 PM)
Minimum temperature yesterday: 30 °F (at 6:00 AM)
Average temperature yesterday: 36 °F

High & Low Weather Summary for the Past Weeks

High75 °F (Oct 18, 12:00 PM)100% (Oct 17, 3:50 AM)30.53 "Hg (Oct 17, 3:50 AM)
Low30 °F (Oct 26, 6:00 AM)42% (Oct 26, 3:00 PM)29.54 "Hg (Oct 18, 2:00 PM)
Average51 °F75%30.04 "Hg
* Reported Oct 12 1:00 PM — Oct 27 1:00 PM, Oshawa, Weather by CustomWeather, © 2016

Note: Actual official high and low records may vary slightly from our data, if they occured in-between our weather recording intervals... More about our weather records


Oshawa Weather History for the Previous 24 Hours

Scroll right to see more
Time TempWeatherWind HumidityBarometerVisibility
1:00 PM
Thu, Oct 27
37 °FLight rain. Fog.13 mph93%30.01 "Hg1 mi
12:00 PM36 °FLight rain. Fog.14 mph93%30.03 "Hg2 mi
11:57 AM36 °FRain. Fog.12 mph93%30.03 "Hg3 mi
11:00 AM37 °FLight rain. Fog.17 mph93%30.05 "Hg4 mi
10:55 AM37 °FLight rain. Fog.14 mph93%30.06 "Hg2 mi
10:00 AM36 °FLight rain. Low clouds.10 mph93%30.08 "Hg5 mi
9:00 AM34 °FSleet. Fog.15 mph93%30.13 "Hg6 mi
8:53 AM34 °FLight rain. Fog.14 mph93%30.14 "Hg6 mi
8:00 AM34 °FLight snow. Low clouds.14 mph87%30.14 "Hg5 mi
7:00 AM32 °FLight snow. Low clouds.15 mph93%30.19 "Hg5 mi
6:00 AM32 °FLight snow. Low clouds.15 mph93%30.23 "Hg5 mi
5:00 AM34 °FLight snow. Overcast.15 mph87%30.25 "Hg5 mi
4:00 AM34 °FLight snow. Overcast.14 mph87%30.29 "Hg5 mi
3:00 AM34 °FLight snow. Overcast.14 mph87%30.32 "Hg6 mi
2:00 AM34 °FLight snow. Overcast.12 mph81%30.35 "Hg8 mi
1:00 AM37 °FLight snow. Overcast.10 mph60%30.37 "Hg10 mi
12:00 AM37 °FPassing clouds.12 mph56%30.40 "Hg15 mi
11:00 PM
Wed, Oct 26
37 °FPassing clouds.10 mph56%30.40 "Hg15 mi
10:00 PM37 °FPassing clouds.14 mph56%30.41 "Hg15 mi
9:00 PM37 °FOvercast.9 mph56%30.42 "Hg15 mi
8:00 PM39 °FPassing clouds.8 mph52%30.45 "Hg15 mi
7:00 PM39 °FOvercast.6 mph52%30.45 "Hg15 mi
6:00 PM39 °FOvercast.7 mph48%30.43 "Hg15 mi
5:00 PM39 °FHigh level clouds.6 mph42%30.44 "Hg15 mi
4:00 PM39 °FHigh level clouds.8 mph42%30.44 "Hg15 mi
3:00 PM39 °FOvercast.3 mph42%30.46 "Hg15 mi
2:00 PM39 °FOvercast.2 mph45%30.48 "Hg15 mi
Weather by CustomWeather, © 2016

See weather overviewHow to use our weather pages